Location: *
(32.3758°S, 63.1185°E)
Time: 00:42:48
(UTC+00:00)

Cosmos 2227 Rocket - Pass Details

Date: 02 June 2023
Orbit: 837 x 846 km, 71.0° (Epoch: 03 October)

Event Time Altitude Azimuth Distance (km) Brightness Sun altitude
Rises 14:25:49 0° 314° (NW) 3,395 6.4 -19.8°
Reaches altitude 10° 14:28:33 10° 303° (WNW) 2,469 5.7 -20.4°
Maximum altitude 14:33:29 30° 243° (WSW) 1,487 3.9 -21.4°
Drops below altitude 10° 14:38:28 10° 182° (S) 2,495 4.5 -22.4°
Enters shadow 14:40:08 - 175° (S) 3,048 4.9 -22.8°
